Location: Kalispell
(48.1967°N, 114.3128°W)
Time: 19:06:50
(UTC-06:00)

Amateur Radio Satellites - All Passes

Search period start: 29 May 2016 18:36
Search period end: 30 May 2016 18:36
Location: Kalispell, 48.1967°N, 114.3128°W

Satellite Date Start Highest point End Downlink Frequencies (MHz)
Time Altitude Azimuth
RS-15 29 May 18:51:19 19:02:48 88° 126° (SE) 19:14:58 29.354- 29.394
BEESAT 2 29 May 18:54:49 18:57:18 16° 29° (NNE) 18:59:46 435.950
PCSat 29 May 18:56:07 19:01:35 78° 55° (NE) 19:07:01 145.827
O/OREOS (USA 219) 29 May 19:00:25 19:04:40 40° 57° (ENE) 19:08:52 437.305
KKS-1 29 May 19:06:38 19:09:18 16° 301° (WNW) 19:11:56 437.445
BRITE-PL 29 May 19:07:07 19:12:49 75° 258° (WSW) 19:18:30 437.365/2234.400
NOAA 15 29 May 19:14:54 19:20:02 49° 260° (W) 19:25:13 137.62
HO-68 29 May 19:15:53 19:21:50 29° 55° (NE) 19:27:46 435.675
GOMX 1 29 May 19:20:11 19:25:38 79° 76° (ENE) 19:30:57 467.674
BEESAT 3 29 May 19:24:31 19:28:06 31° 41° (NE) 19:31:39 437.485
AUBIESAT-1 29 May 19:27:13 19:30:16 22° 60° (ENE) 19:33:10 437.475
Cubesat XI-IV 29 May 19:28:02 19:33:13 54° 259° (W) 19:38:27 437.490
LilacSat-2 29 May 19:28:38 19:32:16 44° 261° (W) 19:35:55 437.200
SEEDS 29 May 19:31:08 19:32:39 12° 58° (ENE) 19:34:12 437.485
CANX-2 29 May 19:31:41 19:34:30 18° 61° (ENE) 19:37:20 2200.000
CUBESAT XI-V 29 May 19:31:56 19:36:40 70° 286° (WNW) 19:41:19 437.345
M-CUBED/EXP-1 PRIME 29 May 19:35:25 19:39:00 32° 63° (ENE) 19:42:20 437.505
STARS 29 May 19:36:10 19:38:36 15° 302° (WNW) 19:41:01 437.465
MOZHAYETS 4 29 May 19:39:59 19:41:22 11° 305° (NW) 19:42:45
NOAA 18 29 May 19:45:55 19:50:47 32° 264° (W) 19:55:40 137.9125
DOVE 4 29 May 19:57:34 20:02:45 88° 78° (ENE) 20:07:42 437.250
Cosmos 2504 29 May 19:57:35 20:04:16 37° 293° (WNW) 20:11:23 435.465 / 435.565
CUTE 1.7 + AOD 2 29 May 19:57:36 20:01:08 27° 66° (ENE) 20:04:42 437.475
STRAND 1 29 May 20:09:22 20:13:44 27° 94° (E) 20:18:04 437.568
COMPASS 1 29 May 20:11:00 20:14:05 21° 63° (ENE) 20:17:12 437.405
AAUSAT CUBESAT 2 29 May 20:11:35 20:14:18 17° 62° (ENE) 20:17:04 437.432
CINEMA 3 29 May 20:11:44 20:16:05 41° 70° (ENE) 20:20:16 145.822/145.860
CUTE-I 29 May 20:15:00 20:19:09 23° 268° (W) 20:23:20 437.470
BEESAT 2 29 May 20:31:51 20:35:51 72° 50° (NE) 20:39:49 435.950
GONETS M04 29 May 20:32:16 20:35:07 12° 68° (ENE) 20:37:58
ZACube-1 29 May 20:32:25 20:33:50 12° 58° (ENE) 20:35:14 437.345
YUBILEINY 29 May 20:33:56 20:36:00 11° 318° (NW) 20:38:04 435.215
O/OREOS (USA 219) 29 May 20:40:10 20:43:53 26° 256° (WSW) 20:47:35 437.305
PCSat 29 May 20:40:39 20:44:22 19° 254° (WSW) 20:48:03 145.827
CUBEBUG 2 29 May 20:45:45 20:49:29 30° 67° (ENE) 20:53:10 437.445
BRITE-PL 29 May 20:49:46 20:52:10 13° 276° (W) 20:54:34 437.365/2234.400
GOMX 1 29 May 21:00:45 21:04:15 17° 272° (W) 21:07:42 467.674
AUBIESAT-1 29 May 21:00:54 21:04:38 37° 255° (WSW) 21:08:08 437.475
HO-68 29 May 21:01:53 21:09:00 71° 256° (WSW) 21:16:11 435.675
BEESAT 3 29 May 21:02:12 21:05:50 35° 241° (WSW) 21:09:27 437.485
SEEDS 29 May 21:03:31 21:07:42 90° 318° (NW) 21:11:56 437.485
RS-15 29 May 21:05:46 21:16:49 44° 335° (NNW) 21:28:24 29.354- 29.394
CANX-2 29 May 21:05:50 21:09:58 56° 260° (W) 21:14:09 2200.000
FUNcube-1 29 May 21:06:59 21:10:15 23° 64° (ENE) 21:13:31 145.935
UWE-3 29 May 21:09:02 21:12:54 35° 69° (ENE) 21:16:44 435.000/436.395/437.385
M-CUBED/EXP-1 PRIME 29 May 21:10:10 21:13:35 26° 258° (WSW) 21:16:48 437.505
CUBESAT XI-V 29 May 21:11:50 21:13:11 11° 306° (NW) 21:14:31 437.345
AIST 2 29 May 21:23:38 21:27:07 25° 37° (NE) 21:30:37 435.215
CUTE 1.7 + AOD 2 29 May 21:33:03 21:36:52 34° 264° (W) 21:40:45 437.475
ISS 29 May 21:36:18 21:38:59 24° 141° (SE) 21:41:40 145.825
DOVE 4 29 May 21:38:27 21:41:02 14° 273° (W) 21:43:34 437.250
PRISM 29 May 21:42:19 21:46:13 37° 98° (E) 21:50:05 437.425
AAUSAT CUBESAT 2 29 May 21:45:21 21:49:25 55° 260° (W) 21:53:32 437.432
COMPASS 1 29 May 21:45:24 21:49:23 45° 262° (W) 21:53:25 437.405
Oscar 11 29 May 21:46:06 21:50:21 65° 74° (ENE) 21:54:38 145.826/435.025
STRAND 1 29 May 21:48:11 21:53:07 47° 292° (WNW) 21:58:01 437.568
CINEMA 3 29 May 21:49:32 21:53:21 25° 266° (W) 21:57:03 145.822/145.860
CUSAT 1 29 May 21:52:49 21:59:18 27° 58° (ENE) 22:05:00 437.405
HUMSAT D 29 May 21:53:28 21:56:23 19° 63° (ENE) 21:59:19 437.325/437.525
DELFI C3 29 May 21:55:20 21:59:01 38° 70° (ENE) 22:02:46 145.870
AIST 1 29 May 22:00:03 22:04:27 76° 96° (E) 22:08:53
ZACube-1 29 May 22:05:17 22:09:29 90° 148° (SSE) 22:13:41 437.345
DANDE 29 May 22:08:20 22:14:47 24° 55° (NE) 22:20:55 436.750
BEESAT 2 29 May 22:11:02 22:13:11 14° 249° (WSW) 22:15:18 435.950
GONETS M04 29 May 22:21:23 22:29:54 58° 91° (E) 22:38:23
CUBEBUG 2 29 May 22:22:16 22:26:06 30° 264° (W) 22:29:52 437.445
Cosmos 2499 29 May 22:31:13 22:37:53 39° 85° (E) 22:45:01 435.465 / 435.565
PHONESAT 2.4 29 May 22:38:06 22:39:39 13° 162° (SSE) 22:41:12 2401.200-2431.200
FUNcube-1 29 May 22:42:23 22:46:19 39° 262° (W) 22:50:15 145.935
UWE-3 29 May 22:45:57 22:49:28 25° 266° (W) 22:52:57 435.000/436.395/437.385
HO-68 29 May 22:54:31 22:58:02 14° 276° (W) 23:01:34 435.675
UKube-1 29 May 22:57:32 22:58:42 11° 55° (NE) 22:59:53 .
AISAT 29 May 23:01:21 23:04:18 18° 60° (ENE) 23:07:16 437.250
AIST 2 29 May 23:01:49 23:05:53 54° 237° (WSW) 23:09:55 435.215
ISS 29 May 23:11:55 23:15:10 77° 338° (NNW) 23:18:28 145.825
PRISM 29 May 23:17:58 23:21:23 25° 296° (WNW) 23:24:45 437.425
RS-15 29 May 23:22:14 23:33:09 37° 9° (N) 23:44:20 29.354- 29.394
Oscar 11 29 May 23:24:34 23:26:56 14° 271° (W) 23:29:20 145.826/435.025
UNISAT 6 29 May 23:26:47 23:30:34 29° 96° (E) 23:34:24 437.425
HUMSAT D 29 May 23:27:48 23:31:43 46° 261° (W) 23:35:41 437.325/437.525
50 SAT 29 May 23:30:32 23:33:37 27° 67° (ENE) 23:36:45 437.505
DELFI C3 29 May 23:31:02 23:34:03 21° 267° (W) 23:37:07 145.870
TIGRISAT 29 May 23:33:23 23:37:16 32° 96° (E) 23:41:11 435.000
CUSAT 1 29 May 23:34:34 23:42:23 77° 262° (W) 23:48:50 437.405
AIST 1 29 May 23:40:26 23:42:38 14° 297° (WNW) 23:44:52
DX 1 29 May 23:45:42 23:49:40 35° 67° (ENE) 23:53:40 434.975-435.025
CUBEBUG 1 29 May 23:45:56 23:50:05 41° 69° (ENE) 23:54:16 437.445
ESTCUBE 1 29 May 23:48:10 23:52:37 60° 72° (ENE) 23:57:07 437.505/2401.250
DANDE 29 May 23:50:32 23:59:04 80° 77° (ENE) 00:06:43 436.750
VELOX 1 29 May 23:59:29 00:03:51 55° 71° (ENE) 00:08:14 145.980
SPROUT 30 May 00:01:55 00:05:26 25° 65° (ENE) 00:08:56 437.525
ANTELSAT 30 May 00:07:36 00:11:55 75° 104° (ESE) 00:16:18 437.575/2403.000
PHONESAT 2.4 30 May 00:13:21 00:15:44 20° 179° (S) 00:18:08 2401.200-2431.200
POPSAT HIP 1 30 May 00:16:41 00:19:42 19° 92° (E) 00:22:42 437.405
QB50P1 30 May 00:16:47 00:19:51 19° 92° (E) 00:22:53 145.935-145.965
TISAT 1 30 May 00:18:33 00:20:20 12° 58° (ENE) 00:22:07 437.305
GONETS M04 30 May 00:19:05 00:27:07 38° 293° (WNW) 00:35:10
QB50P2 30 May 00:19:51 00:23:09 22° 93° (E) 00:26:25 145.880/145.840
POLYITAN 1 30 May 00:22:19 00:25:37 22° 93° (E) 00:28:55 437.675
Cosmos 2499 30 May 00:23:42 00:30:48 49° 288° (WNW) 00:38:32 435.465 / 435.565
UKube-1 30 May 00:29:40 00:34:00 77° 74° (ENE) 00:38:22 .
NANOSAT C BR1 30 May 00:33:21 00:36:56 27° 95° (E) 00:40:29 145.865
SO-50 30 May 00:35:10 00:39:35 35° 118° (ESE) 00:44:01 436.795
AISAT 30 May 00:35:53 00:40:20 64° 258° (WSW) 00:44:47 437.250
ISS 30 May 00:48:44 00:51:53 43° 359° (N) 00:55:02 145.825
UNISAT 6 30 May 01:03:29 01:07:18 31° 293° (WNW) 01:11:09 437.425
50 SAT 30 May 01:04:16 01:07:20 25° 265° (W) 01:10:26 437.505
BEESAT 30 May 01:08:23 01:09:17 10° 52° (NE) 01:10:12 436.000
TIGRISAT 30 May 01:10:13 01:13:55 29° 294° (WNW) 01:17:40 435.000
DUCHIFAT 1 30 May 01:10:18 01:14:28 60° 102° (ESE) 01:18:35 145.980
JAS-2 30 May 01:12:09 01:17:34 22° 85° (E) 01:22:36 435.910
BUGSAT 1 30 May 01:17:48 01:21:31 34° 97° (E) 01:25:11 437.445
CUSAT 1 30 May 01:18:34 01:23:01 17° 285° (WNW) 01:27:04 437.405
DX 1 30 May 01:22:09 01:25:55 27° 265° (W) 01:29:42 434.975-435.025
CUBEBUG 1 30 May 01:22:56 01:26:32 24° 267° (W) 01:30:08 437.445
ESTCUBE 1 30 May 01:26:53 01:29:50 17° 270° (W) 01:32:49 437.505/2401.250
DANDE 30 May 01:34:22 01:41:02 27° 279° (W) 01:47:14 436.750
RS-15 30 May 01:36:28 01:48:37 62° 41° (NE) 02:00:51 29.354- 29.394
SPROUT 30 May 01:37:13 01:41:13 38° 263° (W) 01:45:14 437.525
VELOX 1 30 May 01:37:33 01:40:39 18° 269° (W) 01:43:46 145.980
ANTELSAT 30 May 01:45:47 01:48:07 14° 301° (WNW) 01:50:27 437.575/2403.000
PHONESAT 2.4 30 May 01:50:01 01:51:51 15° 195° (SSW) 01:53:41 2401.200-2431.200
TISAT 1 30 May 01:51:08 01:55:23 86° 259° (W) 01:59:37 437.305
POPSAT HIP 1 30 May 01:51:42 01:55:44 46° 290° (WNW) 01:59:46 437.405
QB50P1 30 May 01:51:51 01:55:52 46° 290° (WNW) 01:59:53 145.935-145.965
QB50P2 30 May 01:55:10 01:59:07 40° 291° (WNW) 02:03:04 145.880/145.840
POLYITAN 1 30 May 01:57:39 02:01:35 40° 291° (WNW) 02:05:31 437.675
UKube-1 30 May 02:08:46 02:10:36 12° 272° (W) 02:12:27 .
NANOSAT C BR1 30 May 02:08:57 02:12:43 33° 293° (WNW) 02:16:27 145.865
SWISSCUBE 30 May 02:12:26 02:16:50 39° 67° (ENE) 02:21:15 437.505
SO-50 30 May 02:15:19 02:20:01 44° 317° (NW) 02:24:43 436.795
ITUPSAT 1 30 May 02:20:00 02:24:27 40° 67° (ENE) 02:28:55 437.325
Cosmos 2499 30 May 02:23:58 02:26:29 12° 315° (NW) 02:29:02 435.465 / 435.565
Oscar 19 30 May 02:25:02 02:29:32 29° 94° (E) 02:33:59 437.125/150
ISS 30 May 02:25:19 02:28:36 74° 19° (NNE) 02:31:52 145.825
YUBILEINY 30 May 02:36:17 02:43:49 31° 63° (ENE) 02:51:20 435.215
BEESAT 30 May 02:41:27 02:46:09 64° 72° (ENE) 02:50:54 436.000
DUCHIFAT 1 30 May 02:47:07 02:49:44 16° 300° (WNW) 02:52:20 145.980
BUGSAT 1 30 May 02:53:28 02:56:46 24° 295° (WNW) 03:00:01 437.445
JAS-2 30 May 02:56:03 03:03:38 85° 287° (WNW) 03:10:20 435.910
KKS-1 30 May 02:56:08 02:58:33 15° 57° (ENE) 03:00:58 437.445
Gurwin Techsat 1B 30 May 03:09:03 03:13:49 32° 95° (E) 03:18:32 435.225
ITAMSAT 1 30 May 03:13:38 03:16:28 14° 88° (E) 03:19:16 435.822/435.867
STARS 30 May 03:24:27 03:26:51 15° 58° (ENE) 03:29:15 437.465
MOZHAYETS 4 30 May 03:29:51 03:33:19 22° 62° (ENE) 03:36:48
Cosmos 2491 30 May 03:38:10 03:45:19 29° 80° (E) 03:52:26 435.465 / 435.565
RS-15 30 May 03:49:25 04:01:08 54° 246° (WSW) 04:12:51 29.354- 29.394
Cosmos 2504 30 May 03:50:32 03:57:27 27° 62° (ENE) 04:04:35 435.465 / 435.565
SWISSCUBE 30 May 03:50:37 03:54:43 29° 265° (W) 03:58:52 437.505
ITUPSAT 1 30 May 03:58:22 04:02:24 27° 266° (W) 04:06:30 437.325
SO-50 30 May 03:58:49 04:01:44 15° 340° (NNW) 04:04:37 436.795
ISS 30 May 04:02:04 04:04:49 25° 218° (SW) 04:07:33 145.825
Oscar 19 30 May 04:04:08 04:08:59 43° 294° (WNW) 04:13:49 437.125/150
BEESAT 30 May 04:21:15 04:24:24 17° 270° (W) 04:27:33 436.000
AO-7 30 May 04:23:40 04:30:40 29° 93° (E) 04:37:38 29.400- 29.500
KKS-1 30 May 04:30:03 04:34:31 81° 254° (WSW) 04:39:02 437.445
YUBILEINY 30 May 04:32:45 04:41:28 72° 265° (W) 04:50:11 435.215
JAS-2 30 May 04:42:05 04:47:32 22° 309° (NW) 04:52:39 435.910
Gurwin Techsat 1B 30 May 04:48:53 04:53:51 41° 294° (WNW) 04:58:48 435.225
ITAMSAT 1 30 May 04:51:22 04:56:38 86° 283° (WNW) 05:01:52 435.822/435.867
STARS 30 May 04:58:14 05:02:39 78° 256° (WSW) 05:07:04 437.465
CUBESAT XI-V 30 May 05:02:23 05:06:06 24° 63° (ENE) 05:09:50 437.345
MOZHAYETS 4 30 May 05:05:44 05:10:10 50° 261° (W) 05:14:39
Cosmos 2491 30 May 05:32:32 05:41:21 73° 282° (WNW) 05:50:13 435.465 / 435.565
SO-50 30 May 05:42:41 05:44:16 11° 5° (N) 05:45:49 436.795
Cosmos 2504 30 May 05:43:20 05:51:48 83° 263° (W) 06:00:39 435.465 / 435.565
HORYU 2 30 May 05:44:29 05:48:09 25° 94° (E) 05:51:48 437.375
AO-85 30 May 06:01:17 06:06:09 34° 116° (ESE) 06:10:55 145.980
RS-15 30 May 06:06:12 06:10:32 13° 270° (W) 06:14:51 29.354- 29.394
AO-7 30 May 06:15:50 06:24:12 76° 294° (WNW) 06:32:33 29.400- 29.500
NOAA 18 30 May 06:25:00 06:27:12 12° 86° (E) 06:29:23 137.9125
YUBILEINY 30 May 06:31:45 06:36:38 17° 288° (WNW) 06:41:33 435.215
ITAMSAT 1 30 May 06:32:20 06:35:21 16° 305° (NW) 06:38:23 435.822/435.867
CUBESAT XI-V 30 May 06:38:40 06:43:12 48° 261° (W) 06:47:48 437.345
CUTE-I 30 May 06:47:54 06:51:20 17° 89° (E) 06:54:45 437.470
LilacSat-2 30 May 06:59:17 07:01:34 15° 91° (E) 07:03:49 437.200
BRITE-PL 30 May 07:09:26 07:13:51 29° 92° (E) 07:17:58 437.365/2234.400
GOMX 1 30 May 07:20:09 07:23:08 17° 88° (E) 07:25:59 467.674
HORYU 2 30 May 07:20:42 07:24:50 39° 292° (WNW) 07:28:58 437.375
SO-50 30 May 07:22:55 07:26:35 21° 29° (NNE) 07:30:08 436.795
NOAA 15 30 May 07:26:08 07:31:16 48° 99° (E) 07:36:21 137.62
STRAND 1 30 May 07:28:35 07:33:33 55° 70° (ENE) 07:38:33 437.568
Cosmos 2491 30 May 07:34:02 07:40:01 19° 307° (NW) 07:46:01 435.465 / 435.565
Cosmos 2504 30 May 07:38:21 07:44:00 20° 284° (WNW) 07:49:48 435.465 / 435.565
AO-85 30 May 07:41:14 07:46:33 51° 315° (NW) 07:51:40 145.980
Cubesat XI-IV 30 May 07:41:20 07:46:30 46° 99° (E) 07:51:39 437.490
DOVE 4 30 May 07:54:23 07:57:10 16° 89° (E) 07:59:52 437.250
NOAA 18 30 May 08:03:14 08:08:45 79° 105° (ESE) 08:14:15 137.9125
AIST 1 30 May 08:03:41 08:07:27 27° 71° (ENE) 08:11:09
AO-7 30 May 08:09:39 08:15:44 23° 316° (NW) 08:21:49 29.400- 29.500
Cosmos 2499 30 May 08:16:40 08:22:52 21° 56° (ENE) 08:29:13 435.465 / 435.565
CUTE-I 30 May 08:26:37 08:32:00 77° 288° (WNW) 08:37:21 437.470
HO-68 30 May 08:26:41 08:31:35 19° 88° (E) 08:36:26 435.675
GONETS M04 30 May 08:27:03 08:34:52 35° 65° (ENE) 08:42:37
LilacSat-2 30 May 08:32:29 08:36:09 48° 288° (WNW) 08:39:48 437.200
PRISM 30 May 08:34:56 08:38:53 44° 69° (ENE) 08:42:53 437.425
SEEDS 30 May 08:45:36 08:47:21 12° 87° (E) 08:49:06 437.485
BRITE-PL 30 May 08:47:42 08:52:29 39° 293° (WNW) 08:56:53 437.365/2234.400
CANX-2 30 May 08:47:47 08:50:57 20° 92° (E) 08:54:07 2200.000
GOMX 1 30 May 08:57:06 09:01:44 59° 288° (WNW) 09:06:03 467.674
SO-50 30 May 09:03:01 09:07:48 83° 51° (NE) 09:12:23 436.795
NOAA 15 30 May 09:06:20 09:10:49 29° 298° (WNW) 09:15:17 137.62
STRAND 1 30 May 09:09:06 09:13:04 22° 268° (W) 09:17:04 437.568
CUTE 1.7 + AOD 2 30 May 09:13:58 09:17:49 31° 95° (E) 09:21:39 437.475
O/OREOS (USA 219) 30 May 09:17:05 09:20:37 22° 103° (ESE) 09:24:08 437.305
Cubesat XI-IV 30 May 09:21:47 09:26:24 30° 298° (WNW) 09:31:01 437.490
AO-85 30 May 09:24:37 09:28:12 18° 337° (NNW) 09:31:38 145.980
AAUSAT CUBESAT 2 30 May 09:24:44 09:27:40 18° 91° (E) 09:30:35 437.432
COMPASS 1 30 May 09:24:54 09:28:14 22° 93° (E) 09:31:34 437.405
DOVE 4 30 May 09:31:01 09:35:19 54° 288° (WNW) 09:39:25 437.250
ANTELSAT 30 May 09:35:55 09:38:00 13° 58° (ENE) 09:40:04 437.575/2403.000
CINEMA 3 30 May 09:39:29 09:43:37 58° 101° (E) 09:47:42 145.822/145.860
AIST 1 30 May 09:41:11 09:45:04 32° 270° (W) 09:48:53
PCSat 30 May 09:41:42 09:46:30 33° 112° (ESE) 09:51:19 145.827
NOAA 18 30 May 09:44:59 09:48:49 20° 304° (NW) 09:52:39 137.9125
ZACube-1 30 May 09:51:20 09:53:21 13° 89° (E) 09:55:22 437.345
CUTE-I 30 May 10:08:23 10:11:12 15° 307° (NW) 10:14:02 437.470
CUBEBUG 2 30 May 10:08:41 10:12:36 39° 98° (E) 10:16:34 437.445
Cosmos 2499 30 May 10:08:50 10:17:29 78° 79° (E) 10:26:24 435.465 / 435.565
AUBIESAT-1 30 May 10:10:14 10:13:33 80° 109° (ESE) 10:16:53 437.475
PRISM 30 May 10:11:18 10:14:24 20° 267° (W) 10:17:33 437.425
HO-68 30 May 10:13:02 10:20:16 89° 113° (ESE) 10:27:28 435.675
SEEDS 30 May 10:19:19 10:23:36 76° 285° (WNW) 10:27:51 437.485
M-CUBED/EXP-1 PRIME 30 May 10:19:45 10:23:00 61° 292° (WNW) 10:26:13 437.505
CANX-2 30 May 10:22:56 10:27:03 46° 289° (WNW) 10:31:10 2200.000
GONETS M04 30 May 10:23:43 10:32:16 63° 268° (W) 10:40:46
FUNcube-1 30 May 10:26:28 10:30:06 28° 95° (E) 10:33:46 145.935
UNISAT 6 30 May 10:29:01 10:33:03 40° 69° (ENE) 10:37:04 437.425
UWE-3 30 May 10:30:44 10:34:47 46° 99° (E) 10:38:53 435.000/436.395/437.385
TIGRISAT 30 May 10:35:26 10:39:32 44° 70° (ENE) 10:43:36 435.000
SO-50 30 May 10:44:55 10:47:37 15° 250° (WSW) 10:50:16 436.795
CUTE 1.7 + AOD 2 30 May 10:49:53 10:53:37 29° 293° (WNW) 10:57:21 437.475
O/OREOS (USA 219) 30 May 10:55:19 10:59:44 47° 302° (WNW) 11:04:07 437.305
BEESAT 3 30 May 10:57:26 10:59:36 14° 112° (ESE) 11:01:48 437.485
AAUSAT CUBESAT 2 30 May 10:59:21 11:03:26 49° 289° (WNW) 11:07:29 437.432
CUSAT 1 30 May 10:59:26 11:04:27 21° 78° (ENE) 11:09:55 437.405
COMPASS 1 30 May 11:00:00 11:03:57 40° 290° (WNW) 11:07:54 437.405
DELFI C3 30 May 11:03:57 11:07:46 38° 98° (E) 11:11:33 145.870
Oscar 11 30 May 11:05:33 11:09:56 82° 106° (ESE) 11:14:18 145.826/435.025
HUMSAT D 30 May 11:07:50 11:11:02 21° 93° (E) 11:14:15 437.325/437.525
AO-85 30 May 11:08:51 11:10:44 12° 1° (N) 11:12:34 145.980
ANTELSAT 30 May 11:09:49 11:14:08 81° 255° (WSW) 11:18:27 437.575/2403.000
POPSAT HIP 1 30 May 11:12:33 11:15:56 24° 64° (ENE) 11:19:19 437.405
QB50P1 30 May 11:12:37 11:16:01 24° 64° (ENE) 11:19:25 145.935-145.965
QB50P2 30 May 11:15:51 11:19:24 27° 65° (ENE) 11:22:58 145.880/145.840
CINEMA 3 30 May 11:17:46 11:20:21 16° 299° (WNW) 11:22:55 145.822/145.860
POLYITAN 1 30 May 11:18:19 11:21:53 27° 66° (ENE) 11:25:28 437.675
DANDE 30 May 11:23:24 11:26:40 14° 72° (ENE) 11:30:15 436.750
PCSat 30 May 11:24:29 11:29:44 48° 312° (NW) 11:35:01 145.827
ZACube-1 30 May 11:25:55 11:30:06 69° 286° (WNW) 11:34:20 437.345
JAS-2 30 May 11:28:23 11:33:31 20° 49° (NE) 11:38:43 435.910
NANOSAT C BR1 30 May 11:28:48 11:32:33 32° 67° (ENE) 11:36:19 145.865
CUBEBUG 2 30 May 11:45:46 11:49:04 23° 295° (WNW) 11:52:23 437.445
SEEDS 30 May 11:57:55 11:58:32 10° 304° (NW) 11:59:09 437.485
HO-68 30 May 12:01:44 12:07:10 24° 309° (NW) 12:12:36 435.675
FUNcube-1 30 May 12:02:39 12:06:22 32° 293° (WNW) 12:10:09 145.935
Cosmos 2499 30 May 12:02:56 12:09:48 28° 280° (W) 12:16:51 435.465 / 435.565
BEESAT 2 30 May 12:04:34 12:08:16 38° 120° (ESE) 12:12:00 435.950
DUCHIFAT 1 30 May 12:05:20 12:09:32 71° 75° (ENE) 12:13:44 145.980
UNISAT 6 30 May 12:06:31 12:09:57 23° 267° (W) 12:13:21 437.425
UWE-3 30 May 12:07:55 12:10:59 20° 297° (WNW) 12:14:04 435.000/436.395/437.385
Oscar 19 30 May 12:10:25 12:11:56 11° 51° (NE) 12:13:28 437.125/150
BUGSAT 1 30 May 12:10:39 12:14:34 40° 69° (ENE) 12:18:28 437.445
TIGRISAT 30 May 12:13:11 12:16:27 21° 267° (W) 12:19:41 435.000
AISAT 30 May 12:23:16 12:26:24 19° 91° (E) 12:29:30 437.250
GONETS M04 30 May 12:23:29 12:27:12 13° 290° (WNW) 12:30:54
50 SAT 30 May 12:29:49 12:32:41 21° 94° (E) 12:35:33 437.505
BEESAT 3 30 May 12:32:53 12:36:48 70° 310° (NW) 12:40:47 437.485
CUSAT 1 30 May 12:38:28 12:45:22 88° 102° (ESE) 12:53:27 437.405
DELFI C3 30 May 12:39:16 12:42:25 22° 296° (WNW) 12:45:34 145.870
HUMSAT D 30 May 12:42:55 12:46:50 41° 290° (WNW) 12:50:48 437.325/437.525
Oscar 11 30 May 12:43:18 12:45:28 14° 302° (WNW) 12:47:38 145.826/435.025
POPSAT HIP 1 30 May 12:47:34 12:51:32 39° 262° (W) 12:55:32 437.405
QB50P1 30 May 12:47:39 12:51:37 38° 262° (W) 12:55:36 145.935-145.965
AO-85 30 May 12:49:37 12:53:12 19° 26° (NNE) 12:56:33 145.980
QB50P2 30 May 12:51:14 12:55:07 34° 263° (W) 12:58:59 145.880/145.840
POLYITAN 1 30 May 12:53:46 12:57:37 33° 264° (W) 13:01:27 437.675
Gurwin Techsat 1B 30 May 12:57:22 12:59:49 13° 52° (NE) 13:02:16 435.225
DANDE 30 May 13:01:43 13:07:46 70° 96° (E) 13:15:29 436.750
NANOSAT C BR1 30 May 13:04:41 13:08:19 27° 265° (W) 13:11:57 145.865
AIST 2 30 May 13:04:49 13:06:34 12° 110° (ESE) 13:08:18 435.215
DX 1 30 May 13:06:00 13:10:05 38° 98° (E) 13:14:08 434.975-435.025
CUBEBUG 1 30 May 13:06:51 13:11:07 48° 99° (E) 13:15:19 437.445
JAS-2 30 May 13:09:40 13:17:11 69° 70° (ENE) 13:25:01 435.910
PCSat 30 May 13:11:16 13:14:30 16° 335° (NNW) 13:17:44 145.827
ESTCUBE 1 30 May 13:13:35 13:18:11 80° 104° (ESE) 13:22:43 437.505/2401.250
SPROUT 30 May 13:19:31 13:23:11 27° 95° (E) 13:26:50 437.525
VELOX 1 30 May 13:22:13 13:26:39 66° 102° (ESE) 13:31:02 145.980
TISAT 1 30 May 13:33:42 13:34:59 11° 88° (E) 13:36:14 437.305
AO-7 30 May 13:38:26 13:43:16 17° 38° (NE) 13:48:07 29.400- 29.500
BEESAT 2 30 May 13:42:39 13:46:12 30° 319° (NW) 13:49:46 435.950
Cosmos 2491 30 May 13:42:45 13:48:27 18° 52° (NE) 13:54:08 435.465 / 435.565
DUCHIFAT 1 30 May 13:43:49 13:45:43 13° 271° (W) 13:47:38 145.980
Oscar 19 30 May 13:45:09 13:50:15 61° 71° (ENE) 13:55:23 437.125/150
BUGSAT 1 30 May 13:46:51 13:50:06 22° 267° (W) 13:53:21 437.445
UKube-1 30 May 13:49:04 13:53:26 85° 103° (ESE) 13:57:45 .
AISAT 30 May 13:58:53 14:03:12 52° 290° (WNW) 14:07:28 437.250
50 SAT 30 May 14:03:07 14:06:31 34° 291° (WNW) 14:09:54 437.505
BEESAT 3 30 May 14:12:51 14:15:13 15° 331° (NNW) 14:17:37 437.485
CUSAT 1 30 May 14:22:50 14:28:39 25° 303° (WNW) 14:35:02 437.405
AO-85 30 May 14:29:46 14:34:36 70° 49° (NE) 14:38:58 145.980
Gurwin Techsat 1B 30 May 14:33:34 14:38:51 71° 72° (ENE) 14:44:10 435.225
ITAMSAT 1 30 May 14:34:26 14:39:00 33° 64° (ENE) 14:43:36 435.822/435.867
BEESAT 30 May 14:39:48 14:41:48 12° 87° (E) 14:43:46 436.000
AIST 2 30 May 14:40:17 14:44:25 85° 307° (NW) 14:48:36 435.215
DX 1 30 May 14:42:31 14:46:08 26° 296° (WNW) 14:49:43 434.975-435.025
CUBEBUG 1 30 May 14:43:49 14:47:06 21° 298° (WNW) 14:50:21 437.445
DANDE 30 May 14:45:57 14:51:30 29° 302° (WNW) 14:58:05 436.750
ESTCUBE 1 30 May 14:51:50 14:54:23 15° 302° (WNW) 14:56:56 437.505/2401.250
SPROUT 30 May 14:55:21 14:59:10 33° 293° (WNW) 15:02:59 437.525
JAS-2 30 May 14:56:09 15:02:42 31° 270° (W) 15:09:33 435.910
VELOX 1 30 May 14:59:49 15:02:38 17° 301° (WNW) 15:05:26 145.980
PCSat 30 May 14:59:50 15:00:23 10° 2° (N) 15:00:56 145.827
TISAT 1 30 May 15:07:01 15:11:13 80° 284° (WNW) 15:15:21 437.305
Oscar 19 30 May 15:26:07 15:29:59 21° 269° (W) 15:33:53 437.125/150
AO-7 30 May 15:26:18 15:34:17 54° 61° (ENE) 15:42:19 29.400- 29.500
UKube-1 30 May 15:26:48 15:28:52 13° 303° (WNW) 15:30:54 .
Cosmos 2491 30 May 15:38:27 15:47:14 70° 77° (ENE) 15:55:55 435.465 / 435.565
YUBILEINY 30 May 15:43:12 15:50:15 29° 80° (E) 15:57:19 435.215
SWISSCUBE 30 May 15:46:08 15:50:52 55° 101° (E) 15:55:34 437.505
ITUPSAT 1 30 May 15:54:05 15:58:51 58° 101° (E) 16:03:36 437.325
RS-15 30 May 16:09:08 16:16:39 21° 97° (E) 16:24:23 29.354- 29.394
AO-85 30 May 16:11:26 16:14:26 17° 251° (WSW) 16:17:17 145.980
ITAMSAT 1 30 May 16:13:33 16:18:23 40° 262° (W) 16:23:16 435.822/435.867
BEESAT 30 May 16:15:26 16:20:15 89° 296° (WNW) 16:25:04 436.000
Gurwin Techsat 1B 30 May 16:15:45 16:19:21 18° 271° (W) 16:22:59 435.225
KKS-1 30 May 16:18:40 16:21:13 15° 90° (E) 16:23:46 437.445
AIST 2 30 May 16:20:38 16:23:31 18° 329° (NNW) 16:26:26 435.215
Cosmos 2504 30 May 16:37:32 16:41:27 15° 73° (ENE) 16:45:29 435.465 / 435.565
PCSat 30 May 16:42:31 16:46:10 18° 28° (NNE) 16:49:50 145.827
TISAT 1 30 May 16:45:20 16:46:08 10° 304° (NW) 16:46:55 437.305
STARS 30 May 16:45:21 16:47:47 15° 90° (E) 16:50:12 437.465
HORYU 2 30 May 16:45:46 16:49:48 36° 67° (ENE) 16:53:50 437.375
BRITE-PL 30 May 16:49:23 16:50:29 11° 51° (NE) 16:51:36 437.365/2234.400
MOZHAYETS 4 30 May 16:57:06 17:01:10 29° 95° (E) 17:05:12
NOAA 15 30 May 17:12:14 17:15:54 19° 57° (ENE) 17:19:34 137.62
AO-7 30 May 17:19:33 17:27:17 42° 262° (W) 17:35:05 29.400- 29.500
SWISSCUBE 30 May 17:24:39 17:28:19 22° 299° (WNW) 17:31:59 437.505
Cubesat XI-IV 30 May 17:29:18 17:32:54 19° 56° (ENE) 17:36:32 437.490
ITUPSAT 1 30 May 17:32:44 17:36:19 21° 300° (WNW) 17:39:54 437.325
BEESAT 3 30 May 17:34:09 17:34:17 10° 19° (NNE) 17:34:24 437.485
Cosmos 2491 30 May 17:36:09 17:43:21 30° 279° (W) 17:50:31 435.465 / 435.565
YUBILEINY 30 May 17:37:37 17:46:17 72° 282° (WNW) 17:55:02 435.215
O/OREOS (USA 219) 30 May 17:44:14 17:46:39 14° 43° (NE) 17:49:02 437.305
LilacSat-2 30 May 17:45:26 17:47:26 14° 62° (ENE) 17:49:27 437.200
NOAA 18 30 May 17:53:37 17:58:30 35° 63° (ENE) 18:03:24 137.9125
KKS-1 30 May 17:53:51 17:58:15 66° 288° (WNW) 18:02:38 437.445
BEESAT 30 May 17:54:50 17:57:21 14° 304° (NW) 17:59:53 436.000
CUTE-I 30 May 18:12:48 18:17:41 39° 66° (ENE) 18:22:37 437.470
STARS 30 May 18:20:16 18:24:37 66° 288° (WNW) 18:28:56 437.465
BRITE-PL 30 May 18:22:17 18:27:46 51° 70° (ENE) 18:33:13 437.365/2234.400
HORYU 2 30 May 18:22:41 18:26:25 27° 265° (W) 18:30:12 437.375
PCSat 30 May 18:25:19 18:30:43 60° 51° (NE) 18:36:04 145.827
